FW7144 Weather Reports


Display with metric or nautical units.
time (UTC)temp
F
wind
direction
speed
MPH
gust
MPH
rain 1hr
in
rain 24hr
in
rain mn
in
humidity
%
barometer
mb
20260508032006 63 84 0.0 0.0 0.00 0.00 0.00 77 1020.1
20260508031405 64 79 0.0 0.0 0.00 0.00 0.00 76 1020.2
20260508030806 64 0 0.0 2.0 0.00 0.00 0.00 75 1020.2
20260508030205 65 307 0.0 3.0 0.00 0.00 0.00 73 1020.2
20260508025605 66 160 0.0 6.0 0.00 0.00 0.00 72 1020.0
20260508025006 66 167 2.0 7.0 0.00 0.00 0.00 72 1019.8
20260508024406 67 166 1.0 4.0 0.00 0.00 0.00 73 1020.0
20260508023805 67 116 0.0 5.0 0.00 0.00 0.00 73 1019.9
20260508023217 67 111 3.0 6.0 0.00 0.00 0.00 73 1020.1
20260508022630 67 108 1.0 6.0 0.00 0.00 0.00 72 1020.1
20260508022005 67 171 0.0 7.0 0.00 0.00 0.00 71 1019.8
20260508021430 67 166 2.0 3.0 0.00 0.00 0.00 70 1020.0
20260508020806 67 96 0.0 3.0 0.00 0.00 0.00 71 1019.9
20260508020230 66 93 0.0 5.0 0.00 0.00 0.00 71 1019.6
20260508015605 67 95 2.0 7.0 0.00 0.00 0.00 70 1019.6
20260508015005 67 89 4.0 8.0 0.00 0.00 0.00 70 1019.7
20260508014406 68 103 3.0 8.0 0.00 0.00 0.00 70 1019.7
20260508013806 68 144 0.0 7.0 0.00 0.00 0.00 69 1019.7
20260508013205 68 149 2.0 6.0 0.00 0.00 0.00 69 1019.8
20260508012605 69 156 1.0 7.0 0.00 0.00 0.00 67 1019.7
20260508012006 69 148 1.0 9.0 0.00 0.00 0.00 66 1019.5
20260508011405 69 124 0.0 8.0 0.00 0.00 0.00 64 1019.6
20260508010806 70 281 2.0 9.0 0.00 0.00 0.00 61 1019.5
20260508010205 70 151 2.0 11.0 0.00 0.00 0.00 63 1019.5
20260508005605 71 169 3.0 6.0 0.00 0.00 0.00 62 1019.5
20260508005005 71 121 0.0 7.0 0.00 0.00 0.00 60 1019.2
20260508004405 72 187 2.0 7.0 0.00 0.00 0.00 59 1019.2
20260508003830 74 171 0.0 5.0 0.00 0.00 0.00 55 1019.3
20260508003230 74 275 0.0 7.0 0.00 0.00 0.00 54 1019.0
20260508002606 75 174 0.0 4.0 0.00 0.00 0.00 54 1018.5
20260508002007 75 233 0.0 2.0 0.00 0.00 0.00 55 1018.7
20260508001417 75 182 0.0 6.0 0.00 0.00 0.00 54 1018.8
20260508000830 75 215 3.0 8.0 0.00 0.00 0.00 55 1018.7
20260508000205 75 210 0.0 4.0 0.00 0.00 0.00 55 1018.9
20260507235605 75 185 0.0 2.0 0.00 0.00 0.00 55 1018.9
20260507235006 76 125 0.0 6.0 0.00 0.00 0.00 52 1018.7
20260507234418 76 183 0.0 16.0 0.00 0.00 0.00 51 1018.5
20260507233805 76 224 3.0 13.0 0.00 0.00 0.00 51 1018.5
20260507233206 76 198 2.0 16.0 0.00 0.00 0.00 52 1018.2
20260507232606 77 206 2.0 13.0 0.00 0.00 0.00 51 1018.1
20260507232005 78 209 4.0 17.0 0.00 0.00 0.00 49 1017.8
20260507231406 81 120 3.0 17.0 0.00 0.00 0.00 43 1017.7
20260507230805 81 111 4.0 17.0 0.00 0.00 0.00 42 1017.7
20260507230206 81 120 11.0 20.0 0.00 0.00 0.00 42 1017.8
20260507225605 82 121 8.0 17.0 0.00 0.00 0.00 43 1017.7
20260507225005 80 112 10.0 18.0 0.00 0.00 0.00 42 1017.7
20260507224407 82 111 9.0 19.0 0.00 0.00 0.00 41 1017.7
20260507223805 81 106 13.0 20.0 0.00 0.00 0.00 42 1017.6
20260507223205 80 98 9.0 22.0 0.00 0.00 0.00 43 1017.6
20260507222618 80 98 11.0 21.0 0.00 0.00 0.00 42 1017.6
20260507222005 80 94 11.0 21.0 0.00 0.00 0.00 40 1017.7
20260507221431 82 103 10.0 22.0 0.00 0.00 0.00 40 1017.7
20260507220818 83 101 9.0 28.0 0.00 0.00 0.00 38 1017.8
20260507220230 85 85 5.0 15.0 0.00 0.00 0.00 32 1017.8
20260507215606 83 106 8.0 20.0 0.00 0.00 0.00 34 1017.8
20260507215005 82 116 8.0 19.0 0.00 0.00 0.00 37 1017.8
20260507214405 83 99 9.0 14.0 0.00 0.00 0.00 34 1017.9
20260507213843 81 82 6.0 13.0 0.00 0.00 0.00 41 1018.1
20260507213205 82 97 7.0 15.0 0.00 0.00 0.00 38 1018.1
20260507212605 83 89 8.0 9.0 0.00 0.00 0.00 37 1018.1
20260507212005 84 79 2.0 7.0 0.00 0.00 0.00 24 1018.3
20260507211405 85 266 2.0 3.0 0.00 0.00 0.00 29 1018.2
20260507210806 84 161 0.0 4.0 0.00 0.00 0.00 27 1018.3
20260507210206 83 294 0.0 16.0 0.00 0.00 0.00 29 1018.4
20260507205605 84 89 6.0 8.0 0.00 0.00 0.00 29 1018.4
20260507205005 83 140 0.0 18.0 0.00 0.00 0.00 31 1018.5
20260507204406 82 95 10.0 22.0 0.00 0.00 0.00 34 1018.6
20260507203805 83 117 9.0 18.0 0.00 0.00 0.00 37 1018.7
20260507203205 85 67 4.0 9.0 0.00 0.00 0.00 31 1018.9
20260507202605 87 334 0.0 8.0 0.00 0.00 0.00 20 1019.1
20260507202030 84 277 2.0 12.0 0.00 0.00 0.00 23 1019.1
20260507201405 85 347 2.0 13.0 0.00 0.00 0.00 20 1019.2
20260507200806 88 343 3.0 15.0 0.00 0.00 0.00 19 1019.3
20260507200206 88 354 3.0 8.0 0.00 0.00 0.00 18 1019.3
20260507195605 87 331 0.0 14.0 0.00 0.00 0.00 19 1019.4
20260507195005 88 30 2.0 22.0 0.00 0.00 0.00 18 1019.4
20260507194405 86 314 3.0 12.0 0.00 0.00 0.00 20 1019.6
20260507193805 84 0 2.0 14.0 0.00 0.00 0.00 21 1019.7
20260507193206 84 295 0.0 9.0 0.00 0.00 0.00 19 1019.9
20260507192605 86 291 0.0 12.0 0.00 0.00 0.00 20 1019.9
20260507192005 87 285 2.0 15.0 0.00 0.00 0.00 17 1020.0
20260507191405 87 317 4.0 13.0 0.00 0.00 0.00 19 1020.2
20260507190830 85 0 2.0 16.0 0.00 0.00 0.00 20 1020.2
20260507190205 85 350 3.0 9.0 0.00 0.00 0.00 21 1020.3
20260507185605 84 286 0.0 14.0 0.00 0.00 0.00 23 1020.3
20260507185005 84 354 3.0 11.0 0.00 0.00 0.00 21 1020.3
20260507184405 83 291 0.0 14.0 0.00 0.00 0.00 23 1020.5
20260507183805 83 335 3.0 13.0 0.00 0.00 0.00 21 1020.5
20260507183205 83 4 0.0 17.0 0.00 0.00 0.00 23 1020.6
20260507182606 86 235 1.0 16.0 0.00 0.00 0.00 26 1020.6
20260507182005 86 314 0.0 9.0 0.00 0.00 0.00 21 1020.7
20260507181431 85 347 1.0 13.0 0.00 0.00 0.00 21 1020.9
20260507180817 85 1 1.0 16.0 0.00 0.00 0.00 22 1020.8
20260507180230 84 83 0.0 13.0 0.00 0.00 0.00 20 1021.0
20260507175606 84 321 3.0 15.0 0.00 0.00 0.00 23 1021.1
20260507175005 84 349 4.0 13.0 0.00 0.00 0.00 26 1021.2
20260507174405 84 346 4.0 16.0 0.00 0.00 0.00 25 1021.2
20260507173817 83 305 4.0 13.0 0.00 0.00 0.00 25 1021.1
20260507173205 83 327 4.0 10.0 0.00 0.00 0.00 28 1021.1
20260507172605 81 257 3.0 4.0 0.00 0.00 0.00 29 1021.3
20260507172006 81 110 0.0 9.0 0.00 0.00 0.00 31 1021.4
20260507171406 82 1 0.0 11.0 0.00 0.00 0.00 34 1021.4
20260507170805 81 354 0.0 12.0 0.00 0.00 0.00 31 1021.5
20260507170205 80 240 0.0 9.0 0.00 0.00 0.00 30 1021.5
20260507165605 81 318 0.0 8.0 0.00 0.00 0.00 35 1021.6
20260507165005 81 260 2.0 7.0 0.00 0.00 0.00 32 1021.6
20260507164443 81 312 0.0 9.0 0.00 0.00 0.00 35 1021.7
20260507163830 80 283 3.0 8.0 0.00 0.00 0.00 36 1021.7
20260507163206 78 155 0.0 7.0 0.00 0.00 0.00 35 1021.8
20260507162606 79 265 2.0 7.0 0.00 0.00 0.00 35 1021.9
20260507162005 79 249 0.0 5.0 0.00 0.00 0.00 37 1022.0
20260507161405 77 147 0.0 8.0 0.00 0.00 0.00 35 1022.0
20260507160806 77 148 0.0 5.0 0.00 0.00 0.00 39 1022.1
20260507160205 78 276 0.0 11.0 0.00 0.00 0.00 41 1022.1
20260507155605 78 316 0.0 5.0 0.00 0.00 0.00 42 1022.1
20260507155005 76 264 0.0 7.0 0.00 0.00 0.00 41 1022.1
20260507154406 76 308 2.0 9.0 0.00 0.00 0.00 45 1022.1
20260507153805 76 296 2.0 8.0 0.00 0.00 0.00 45 1022.2
20260507153205 75 225 2.0 6.0 0.00 0.00 0.00 45 1022.2
20260507152605 76 282 0.0 6.0 0.00 0.00 0.00 44 1022.3
20260507152005 76 239 0.0 2.0 0.00 0.00 0.00 47 1022.3
20260507151405 75 252 0.0 6.0 0.00 0.00 0.00 49 1022.3
20260507150805 75 309 0.0 3.0 0.00 0.00 0.00 49 1022.3
20260507150205 74 304 0.0 4.0 0.00 0.00 0.00 51 1022.4
20260507145605 73 260 0.0 6.0 0.00 0.00 0.00 53 1022.4
20260507145018 74 235 2.0 3.0 0.00 0.00 0.00 53 1022.5
20260507144405 73 172 0.0 6.0 0.00 0.00 0.00 53 1022.5
20260507143805 73 154 0.0 2.0 0.00 0.00 0.00 55 1022.4
20260507143205 72 288 0.0 4.0 0.00 0.00 0.00 58 1022.4
20260507142630 71 66 0.0 3.0 0.00 0.00 0.00 57 1022.5
20260507142006 70 76 0.0 2.0 0.00 0.00 0.00 57 1022.6
20260507141405 71 81 0.0 0.0 0.00 0.00 0.00 58 1022.6
20260507140805 69 354 0.0 0.0 0.00 0.00 0.00 62 1022.6
20260507140205 67 0 0.0 0.0 0.00 0.00 0.00 64 1022.6
20260507135606 66 81 0.0 0.0 0.00 0.00 0.00 67 1022.6
20260507135006 65 104 0.0 3.0 0.00 0.00 0.00 69 1022.6
20260507134405 64 118 0.0 3.0 0.00 0.00 0.00 71 1022.5
20260507133805 63 137 0.0 3.0 0.00 0.00 0.00 72 1022.5
20260507133205 62 142 0.0 4.0 0.00 0.00 0.00 73 1022.5
20260507132605 61 145 0.0 4.0 0.00 0.00 0.00 75 1022.5
20260507132006 60 161 0.0 4.0 0.00 0.00 0.00 76 1022.4
20260507131405 59 141 0.0 3.0 0.00 0.00 0.00 77 1022.4
20260507130805 58 137 0.0 2.0 0.00 0.00 0.00 78 1022.5
20260507130205 57 123 0.0 3.0 0.00 0.00 0.00 80 1022.5
20260507125630 56 123 2.0 4.0 0.00 0.00 0.00 82 1022.5
20260507125005 55 130 3.0 4.0 0.00 0.00 0.00 82 1022.4
20260507124406 54 117 1.0 3.0 0.00 0.00 0.00 83 1022.3
20260507123830 53 93 0.0 0.0 0.00 0.00 0.00 83 1022.3
20260507123205 51 93 0.0 2.0 0.00 0.00 0.00 83 1022.2
20260507122605 51 93 0.0 4.0 0.00 0.00 0.00 82 1022.1
20260507122005 51 96 2.0 6.0 0.00 0.00 0.00 82 1022.1
20260507121405 53 103 4.0 4.0 0.00 0.00 0.00 82 1022.1
20260507120805 52 90 1.0 3.0 0.00 0.00 0.00 82 1022.1
20260507120205 53 87 3.0 3.0 0.00 0.00 0.00 83 1022.1
20260507115605 52 104 1.0 3.0 0.00 0.00 0.00 81 1022.1
20260507115005 53 101 2.0 4.0 0.00 0.00 0.00 82 1022.0
20260507114405 53 84 2.0 3.0 0.00 0.00 0.00 82 1022.1
20260507113806 52 49 0.0 2.0 0.00 0.00 0.00 82 1022.0
20260507113205 52 49 0.0 3.0 0.00 0.00 0.00 81 1022.0
20260507112605 52 49 0.0 3.0 0.00 0.00 0.00 81 1021.9
20260507112005 53 78 3.0 3.0 0.00 0.00 0.00 82 1021.9
20260507111405 54 78 0.0 6.0 0.00 0.00 0.00 80 1021.9
20260507110805 54 85 4.0 5.0 0.00 0.00 0.00 81 1021.9
20260507110205 54 96 0.0 2.0 0.00 0.00 0.00 81 1021.8
20260507105618 53 101 2.0 2.0 0.00 0.00 0.00 80 1021.8
20260507105005 54 104 0.0 3.0 0.00 0.00 0.00 80 1021.9
20260507104405 54 104 2.0 4.0 0.00 0.00 0.00 80 1021.8
20260507103806 55 108 2.0 4.0 0.00 0.00 0.00 80 1021.8
20260507103205 55 107 2.0 4.0 0.00 0.00 0.00 79 1021.8
20260507102605 55 115 3.0 3.0 0.00 0.00 0.00 79 1021.8
20260507102007 55 103 0.0 3.0 0.00 0.00 0.00 78 1021.7
20260507101405 55 94 0.0 0.0 0.00 0.00 0.00 76 1021.7
20260507100805 57 50 0.0 0.0 0.00 0.00 0.00 77 1021.6
20260507100206 58 68 0.0 3.0 0.00 0.00 0.00 76 1021.7
20260507095605 59 68 2.0 4.0 0.00 0.00 0.00 76 1021.6
20260507095005 58 109 2.0 2.0 0.00 0.00 0.00 77 1021.6
20260507094406 58 75 0.0 3.0 0.00 0.00 0.00 75 1021.6
20260507093805 59 76 0.0 0.0 0.00 0.00 0.00 74 1021.5
20260507093205 60 64 0.0 3.0 0.00 0.00 0.00 74 1021.5
20260507092630 60 88 0.0 3.0 0.00 0.00 0.00 74 1021.5
20260507092005 60 89 2.0 5.0 0.00 0.00 0.00 73 1021.5
20260507091405 60 84 3.0 5.0 0.00 0.00 0.00 73 1021.5
20260507090805 60 104 3.0 4.0 0.00 0.00 0.00 73 1021.4
20260507090205 60 71 3.0 7.0 0.00 0.00 0.00 73 1021.4
20260507085643 60 96 4.0 6.0 0.00 0.00 0.00 73 1021.5
20260507085030 60 88 4.0 7.0 0.00 0.00 0.00 73 1021.6
20260507084443 59 92 4.0 6.0 0.00 0.00 0.00 74 1021.6
20260507083806 59 92 3.0 5.0 0.00 0.00 0.00 74 1021.6
20260507083230 59 77 2.0 7.0 0.00 0.00 0.00 74 1021.7
20260507082605 59 77 4.0 5.0 0.00 0.00 0.00 74 1021.7
20260507082005 59 50 1.0 4.0 0.00 0.00 0.00 74 1021.7
20260507081405 59 82 0.0 7.0 0.00 0.00 0.00 72 1021.7
20260507080805 59 61 4.0 7.0 0.00 0.00 0.00 72 1021.7
20260507080206 58 65 0.0 5.0 0.00 0.00 0.00 73 1021.8
20260507075605 58 64 3.0 6.0 0.00 0.00 0.00 71 1021.9
20260507075005 59 68 2.0 6.0 0.00 0.00 0.00 70 1021.8
20260507074405 59 70 3.0 7.0 0.00 0.00 0.00 71 1021.9
20260507073805 57 84 5.0 8.0 0.00 0.00 0.00 70 1021.8
20260507073205 56 78 2.0 3.0 0.00 0.00 0.00 68 1021.9
20260507072605 57 127 2.0 5.0 0.00 0.00 0.00 67 1021.9
20260507072005 57 86 3.0 4.0 0.00 0.00 0.00 67 1021.9
20260507071430 56 63 0.0 3.0 0.00 0.00 0.00 69 1021.9
20260507070805 56 115 2.0 4.0 0.00 0.00 0.00 69 1022.0
20260507070205 56 45 2.0 3.0 0.00 0.00 0.00 69 1021.9
20260507065605 56 93 0.0 2.0 0.00 0.00 0.00 69 1022.0
20260507065005 57 63 0.0 2.0 0.00 0.00 0.00 67 1022.0
20260507064430 57 69 0.0 2.0 0.00 0.00 0.00 66 1022.0
20260507063805 58 65 0.0 4.0 0.00 0.00 0.00 65 1022.0
20260507063205 59 60 3.0 4.0 0.00 0.00 0.00 64 1022.1
20260507062605 59 87 2.0 5.0 0.00 0.00 0.00 62 1022.1
20260507062005 60 88 3.0 5.0 0.00 0.00 0.00 61 1022.1
20260507061405 60 78 3.0 7.0 0.00 0.00 0.00 60 1022.1
20260507060830 60 68 4.0 7.0 0.00 0.00 0.00 60 1022.1
20260507060205 59 96 5.0 4.0 0.00 0.00 0.00 61 1022.0
20260507055605 58 66 3.0 4.0 0.00 0.00 0.00 63 1022.1
20260507055005 58 58 2.0 3.0 0.00 0.00 0.00 62 1022.0
20260507054405 59 66 2.0 6.0 0.00 0.00 0.00 61 1022.0
20260507053805 59 80 4.0 6.0 0.00 0.00 0.00 61 1022.0
20260507053205 58 103 3.0 3.0 0.00 0.00 0.00 60 1022.0
20260507052605 59 79 2.0 3.0 0.00 0.00 0.00 59 1022.0
20260507052006 60 74 2.0 6.0 0.00 0.00 0.00 59 1022.0
20260507051405 61 77 2.0 4.0 0.00 0.00 0.00 58 1022.0
20260507050805 61 52 0.0 6.0 0.00 0.00 0.00 57 1022.0
20260507050205 61 66 0.0 4.0 0.00 0.00 0.00 59 1021.9
20260507045630 61 61 0.0 5.0 0.00 0.00 0.00 58 1021.8
20260507045005 62 63 3.0 6.0 0.00 0.00 0.00 58 1021.7
20260507043805 62 70 4.0 6.0 0.00 0.00 0.00 58 1021.5
20260507043218 62 75 0.0 4.0 0.00 0.00 0.00 59 1021.5
20260507042606 62 61 0.0 4.0 0.00 0.00 0.00 57 1021.4
20260507042005 65 79 0.0 4.0 0.00 0.00 0.00 52 1021.3
20260507041405 65 120 0.0 5.0 0.00 0.00 0.00 52 1021.3
20260507040830 64 84 0.0 3.0 0.00 0.00 0.00 52 1021.3
20260507040218 65 68 0.0 4.0 0.00 0.00 0.00 51 1021.1
20260507035605 67 330 0.0 4.0 0.00 0.00 0.00 50 1021.3
20260507035005 68 86 0.0 4.0 0.00 0.00 0.00 49 1021.1
20260507034405 67 71 2.0 6.0 0.00 0.00 0.00 51 1021.0
20260507033806 69 44 0.0 3.0 0.00 0.00 0.00 48 1021.0
20260507033217 70 144 0.0 6.0 0.00 0.00 0.00 46 1020.9
20260507032605 69 155 0.0 0.0 0.00 0.00 0.00 48 1020.8